Location: Ar Ranvel
(48.3000°N, 4.8833°W)
Time: 14:56:59
(UTC+00:00)

Cosmos 1238 - Pass Details

Date: 16 June 2021
Orbit: 392 x 1422 km, 83.0° (Epoch: 05 August)

Event Time Altitude Azimuth Distance (km) Brightness Sun altitude
Rises 20:59:40 0° 190° (S) 2,638 8.0 -5.4°
Reaches altitude 10° 21:01:57 10° 192° (SSW) 1,643 6.9 -5.7°
Maximum altitude 21:05:24 78° 279° (W) 441 4.5 -6.1°
Drops below altitude 10° 21:08:28 10° 6° (N) 1,459 7.6 -6.5°
Sets 21:10:24 0° 8° (N) 2,306 8.6 -6.7°
